TimeCDT,TemperatureF,Dew PointF,Humidity,Sea Level PressureIn,VisibilityMPH,Wind Direction,Wind SpeedMPH,Gust SpeedMPH,PrecipitationIn,Events,Conditions,WindDirDegrees,DateUTC
12:15 AM,39.2,32.0,75,30.01,10.0,WNW,11.5,18.4,N/A,,Overcast,290,2013-10-17 05:15:00
12:35 AM,39.2,32.0,75,30.01,10.0,WNW,13.8,19.6,N/A,,Mostly Cloudy,290,2013-10-17 05:35:00
12:55 AM,39.2,32.0,75,30.02,10.0,WNW,15.0,24.2,N/A,,Mostly Cloudy,300,2013-10-17 05:55:00
1:15 AM,37.4,32.0,81,30.04,9.0,NW,16.1,23.0,N/A,Rain,Light Rain,310,2013-10-17 06:15:00
1:35 AM,35.6,32.0,87,30.05,10.0,NW,12.7,18.4,N/A,,Overcast,310,2013-10-17 06:35:00
1:55 AM,35.6,32.0,87,30.05,10.0,NW,19.6,33.4,N/A,,Overcast,310,2013-10-17 06:55:00
2:15 AM,35.6,32.0,87,30.06,10.0,WNW,20.7,26.5,N/A,,Overcast,300,2013-10-17 07:15:00
2:35 AM,35.6,32.0,87,30.07,10.0,NW,17.3,26.5,N/A,,Overcast,310,2013-10-17 07:35:00
2:55 AM,33.8,32.0,93,30.07,7.0,WNW,20.7,24.2,N/A,Rain,Light Rain,300,2013-10-17 07:55:00
3:15 AM,33.8,32.0,93,30.07,10.0,WNW,20.7,28.8,N/A,,Mostly Cloudy,300,2013-10-17 08:15:00
3:35 AM,33.8,32.0,93,30.08,10.0,NW,16.1,26.5,N/A,,Overcast,310,2013-10-17 08:35:00
3:55 AM,32.0,32.0,100,30.08,10.0,WNW,17.3,25.3,N/A,,Overcast,300,2013-10-17 08:55:00
4:15 AM,32.0,32.0,100,30.09,10.0,NW,16.1,23.0,N/A,,Overcast,310,2013-10-17 09:15:00
4:35 AM,32.0,32.0,100,30.08,10.0,WNW,16.1,25.3,N/A,,Mostly Cloudy,300,2013-10-17 09:35:00
4:55 AM,32.0,30.2,93,30.09,10.0,WNW,16.1,-,N/A,,Mostly Cloudy,300,2013-10-17 09:55:00
5:15 AM,32.0,30.2,93,30.09,10.0,WNW,18.4,21.9,N/A,,Overcast,300,2013-10-17 10:15:00
5:35 AM,32.0,30.2,93,30.10,10.0,WNW,19.6,24.2,N/A,,Overcast,290,2013-10-17 10:35:00
5:55 AM,32.0,30.2,93,30.10,10.0,WNW,16.1,23.0,N/A,,Overcast,290,2013-10-17 10:55:00
6:15 AM,32.0,28.4,87,30.10,10.0,WNW,16.1,23.0,N/A,,Overcast,300,2013-10-17 11:15:00
6:35 AM,32.0,30.2,93,30.10,4.0,WNW,16.1,19.6,N/A,,Overcast,300,2013-10-17 11:35:00
6:55 AM,32.0,30.2,93,30.10,1.5,WNW,21.9,29.9,0.07,Snow,Light Snow,300,2013-10-17 11:55:00
7:15 AM,32.0,30.2,93,30.11,10.0,WNW,19.6,23.0,N/A,,Overcast,290,2013-10-17 12:15:00
7:55 AM,32.0,30.2,93,30.12,10.0,WNW,16.1,21.9,N/A,,Overcast,300,2013-10-17 12:55:00
8:15 AM,32.0,28.4,87,30.13,10.0,WNW,13.8,20.7,N/A,,Overcast,300,2013-10-17 13:15:00
8:35 AM,32.0,28.4,87,30.13,10.0,WNW,13.8,-,N/A,,Overcast,290,2013-10-17 13:35:00
8:55 AM,32.0,28.4,87,30.14,10.0,WNW,13.8,21.9,N/A,,Overcast,290,2013-10-17 13:55:00
9:15 AM,32.0,24.8,75,30.15,10.0,WNW,16.1,24.2,N/A,,Overcast,300,2013-10-17 14:15:00
9:35 AM,32.0,24.8,75,30.15,10.0,WNW,16.1,21.9,N/A,,Overcast,300,2013-10-17 14:35:00
9:55 AM,32.0,24.8,75,30.16,10.0,WNW,12.7,-,N/A,,Overcast,300,2013-10-17 14:55:00
10:15 AM,32.0,24.8,75,30.16,10.0,NW,13.8,19.6,N/A,,Overcast,310,2013-10-17 15:15:00
10:35 AM,32.0,23.0,69,30.15,10.0,WNW,12.7,19.6,N/A,,Overcast,300,2013-10-17 15:35:00
10:55 AM,32.0,23.0,69,30.15,10.0,WNW,13.8,17.3,N/A,,Overcast,300,2013-10-17 15:55:00
11:15 AM,32.0,23.0,69,30.15,10.0,NW,9.2,-,N/A,,Overcast,310,2013-10-17 16:15:00
11:35 AM,32.0,23.0,69,30.15,10.0,NW,11.5,18.4,N/A,,Overcast,310,2013-10-17 16:35:00
11:55 AM,32.0,23.0,69,30.14,10.0,WNW,8.1,16.1,N/A,,Overcast,300,2013-10-17 16:55:00
12:15 PM,33.8,23.0,65,30.14,10.0,NW,10.4,17.3,N/A,Rain,Light Rain,310,2013-10-17 17:15:00
12:35 PM,33.8,23.0,65,30.14,10.0,WNW,11.5,-,N/A,,Mostly Cloudy,300,2013-10-17 17:35:00
12:55 PM,33.8,23.0,65,30.13,10.0,West,10.4,-,N/A,,Overcast,280,2013-10-17 17:55:00
1:15 PM,33.8,24.8,70,30.12,10.0,WNW,10.4,19.6,N/A,,Overcast,300,2013-10-17 18:15:00
1:35 PM,35.6,24.8,65,30.11,10.0,WNW,10.4,-,N/A,,Mostly Cloudy,290,2013-10-17 18:35:00
1:55 PM,35.6,23.0,60,30.10,10.0,West,10.4,-,N/A,,Mostly Cloudy,280,2013-10-17 18:55:00
2:15 PM,35.6,23.0,60,30.10,10.0,West,9.2,-,N/A,,Mostly Cloudy,280,2013-10-17 19:15:00
2:35 PM,35.6,23.0,60,30.10,10.0,WNW,8.1,-,N/A,,Partly Cloudy,290,2013-10-17 19:35:00
2:55 PM,35.6,24.8,65,30.10,10.0,WNW,6.9,-,N/A,,Scattered Clouds,300,2013-10-17 19:55:00
3:15 PM,35.6,23.0,60,30.10,10.0,WNW,10.4,18.4,N/A,,Partly Cloudy,300,2013-10-17 20:15:00
3:35 PM,35.6,23.0,60,30.09,10.0,NW,6.9,-,N/A,,Partly Cloudy,320,2013-10-17 20:35:00
3:55 PM,35.6,24.8,65,30.09,10.0,NNW,9.2,-,N/A,,Scattered Clouds,330,2013-10-17 20:55:00
4:15 PM,37.4,23.0,56,30.09,10.0,WNW,10.4,16.1,N/A,,Scattered Clouds,300,2013-10-17 21:15:00
4:35 PM,35.6,23.0,60,30.09,10.0,NW,12.7,-,N/A,,Scattered Clouds,310,2013-10-17 21:35:00
4:55 PM,35.6,23.0,60,30.09,10.0,West,4.6,-,N/A,,Scattered Clouds,280,2013-10-17 21:55:00
5:15 PM,35.6,24.8,65,30.08,10.0,WNW,3.5,-,N/A,,Scattered Clouds,300,2013-10-17 22:15:00
5:35 PM,35.6,24.8,65,30.09,10.0,WNW,3.5,-,N/A,,Mostly Cloudy,300,2013-10-17 22:35:00
5:55 PM,35.6,24.8,65,30.09,10.0,WNW,5.8,-,N/A,,Mostly Cloudy,290,2013-10-17 22:55:00
6:15 PM,35.6,23.0,60,30.09,10.0,West,4.6,-,N/A,,Overcast,280,2013-10-17 23:15:00
6:35 PM,35.6,24.8,65,30.09,10.0,WSW,4.6,-,N/A,,Overcast,250,2013-10-17 23:35:00
6:55 PM,33.8,24.8,70,30.09,10.0,West,4.6,-,N/A,,Overcast,260,2013-10-17 23:55:00
7:15 PM,33.8,24.8,70,30.09,10.0,Calm,Calm,-,N/A,,Overcast,0,2013-10-18 00:15:00
7:35 PM,32.0,24.8,75,30.08,10.0,Calm,Calm,-,N/A,,Overcast,0,2013-10-18 00:35:00
7:55 PM,32.0,24.8,75,30.08,10.0,WNW,3.5,-,N/A,,Scattered Clouds,290,2013-10-18 00:55:00
8:15 PM,32.0,24.8,75,30.08,10.0,WSW,6.9,-,N/A,,Clear,240,2013-10-18 01:15:00
8:35 PM,32.0,24.8,75,30.08,10.0,West,6.9,-,N/A,,Scattered Clouds,260,2013-10-18 01:35:00
8:55 PM,32.0,24.8,75,30.09,10.0,West,4.6,-,N/A,,Overcast,260,2013-10-18 01:55:00
9:15 PM,32.0,23.0,69,30.09,10.0,West,3.5,-,N/A,,Mostly Cloudy,260,2013-10-18 02:15:00
9:35 PM,32.0,23.0,69,30.09,10.0,West,4.6,-,N/A,,Overcast,270,2013-10-18 02:35:00
9:55 PM,32.0,24.8,75,30.09,10.0,West,8.1,-,N/A,,Overcast,270,2013-10-18 02:55:00
10:15 PM,32.0,24.8,75,30.09,10.0,WSW,10.4,-,N/A,,Overcast,250,2013-10-18 03:15:00
10:35 PM,32.0,24.8,75,30.08,10.0,WSW,8.1,-,N/A,,Overcast,250,2013-10-18 03:35:00
10:55 PM,32.0,24.8,75,30.08,10.0,West,6.9,-,N/A,,Overcast,260,2013-10-18 03:55:00
11:15 PM,32.0,23.0,69,30.08,10.0,West,9.2,-,N/A,,Mostly Cloudy,260,2013-10-18 04:15:00
11:35 PM,32.0,23.0,69,30.08,10.0,West,10.4,-,N/A,,Clear,260,2013-10-18 04:35:00
11:55 PM,32.0,23.0,69,30.08,10.0,West,9.2,-,N/A,,Clear,270,2013-10-18 04:55:00